Dades meteomassalio
Diari Summary for Juliol 12, 2017 Units:  English    Metric   Both
« Previous Day
Next Day »
Diari Semanal Mensual Anual Personalitzat
  Maxima: Minima: Mijana:
Temperatura: TemperatureC °F 16.7 °F 28.2 °F
Rosada: DewpointC °F 11.3 °F 16.2 °F
Humitat: Humidity % 21 % 54 %
Velocitat del vent: WindSpeedKMH mph 0.0 mph 5.4 mph
Racha vent: WindSpeedGustKMH mph - -
Vent:- - South
Pressio: PressurehPa in 1013.8 in -
Pluja: 0.0 in    
Historical Graphs
 
 
Tabular Data for Juliol 12, 2017
Time Temperature Dew Point Pressure Wind Wind Speed Wind Gust Humidity Rainfall Rate (Hourly) solar Conditions
TemperatureC °F DewpointC °F PressurehPa in Calm     Humidity % HourlyPrecipMM in SolarRadiationWatts/m^2 W/m2 Conditions
00:00 25.6 °F 19.5 °F 1014.8 in Calm     69 % 0.0 in 0.0 W/m2 CLR
00:05 25.4 °F 19.3 °F 1014.8 in Calm     69 % 0.0 in 0.0 W/m2 CLR
00:10 25.2 °F 19.3 °F 1014.8 in Calm     70 % 0.0 in 0.0 W/m2 CLR
00:15 25.0 °F 19.6 °F 1014.8 in Calm     72 % 0.0 in 0.0 W/m2 CLR
00:20 24.8 °F 19.4 °F 1014.8 in Calm     72 % 0.0 in 0.0 W/m2 CLR
00:25 24.7 °F 19.1 °F 1014.8 in Calm     71 % 0.0 in 0.0 W/m2 CLR
00:30 24.6 °F 18.8 °F 1014.8 in Calm     70 % 0.0 in 0.0 W/m2 CLR
00:35 24.7 °F 19.1 °F 1014.8 in Calm     71 % 0.0 in 0.0 W/m2 CLR
00:40 24.6 °F 19.2 °F 1014.8 in Calm     72 % 0.0 in 0.0 W/m2 CLR
00:45 24.6 °F 18.9 °F 1014.8 in Calm     71 % 0.0 in 0.0 W/m2 CLR
00:50 24.4 °F 18.6 °F 1014.8 in Calm     70 % 0.0 in 0.0 W/m2 CLR
00:55 24.4 °F 18.6 °F 1014.8 in Calm     70 % 0.0 in 0.0 W/m2 CLR
01:00 24.3 °F 18.7 °F 1014.8 in Calm     71 % 0.0 in 0.0 W/m2 CLR
01:05 24.3 °F 18.2 °F 1014.8 in Calm     69 % 0.0 in 0.0 W/m2 CLR
01:10 24.3 °F 18.7 °F 1014.8 in Calm     71 % 0.0 in 0.0 W/m2 CLR
01:15 23.9 °F 18.6 °F 1014.8 in Calm     72 % 0.0 in 0.0 W/m2 CLR
01:20 23.6 °F 18.7 °F 1014.8 in Calm     74 % 0.0 in 0.0 W/m2 CLR
01:25 23.3 °F 18.4 °F 1014.8 in Calm     74 % 0.0 in 0.0 W/m2 CLR
01:30 23.1 °F 18.6 °F 1014.8 in Calm     76 % 0.0 in 0.0 W/m2 CLR
01:35 22.8 °F 18.4 °F 1014.8 in Calm     76 % 0.0 in 0.0 W/m2 CLR
01:40 22.7 °F 18.5 °F 1014.8 in Calm     77 % 0.0 in 0.0 W/m2 CLR
01:45 22.6 °F 18.4 °F 1014.8 in Calm     77 % 0.0 in 0.0 W/m2 CLR
01:50 22.4 °F 18.4 °F 1014.8 in Calm     78 % 0.0 in 0.0 W/m2 CLR
01:55 22.2 °F 18.2 °F 1014.8 in Calm     78 % 0.0 in 0.0 W/m2 CLR
02:00 22.1 °F 18.2 °F 1014.8 in Calm     79 % 0.0 in 0.0 W/m2 CLR
02:05 21.9 °F 18.1 °F 1014.8 in Calm     79 % 0.0 in 0.0 W/m2 CLR
02:10 21.7 °F 18.1 °F 1014.8 in Calm     80 % 0.0 in 0.0 W/m2 CLR
02:15 21.6 °F 18.0 °F 1014.8 in Calm     80 % 0.0 in 0.0 W/m2 CLR
02:20 21.6 °F 17.9 °F 1014.8 in Calm     80 % 0.0 in 0.0 W/m2 CLR
02:22 21.6 °F 17.9 °F 1014.8 in Calm     80 % 0.0 in 0.0 W/m2 CLR
02:27 21.4 °F 18.1 °F 1014.4 in Calm     81 % 0.0 in 0.0 W/m2 CLR
02:32 21.3 °F 17.9 °F 1014.4 in Calm     81 % 0.0 in 0.0 W/m2 CLR
02:37 21.3 °F 17.9 °F 1014.4 in Calm     81 % 0.0 in 0.0 W/m2 CLR
02:42 21.2 °F 17.8 °F 1014.4 in Calm     81 % 0.0 in 0.0 W/m2 CLR
02:47 21.1 °F 17.9 °F 1014.4 in Calm     82 % 0.0 in 0.0 W/m2 CLR
02:52 20.9 °F 17.7 °F 1014.4 in Calm     82 % 0.0 in 0.0 W/m2 CLR
02:57 20.7 °F 17.6 °F 1014.4 in Calm     82 % 0.0 in 0.0 W/m2 CLR
03:02 20.6 °F 17.6 °F 1014.4 in Calm     83 % 0.0 in 0.0 W/m2 CLR
03:07 20.4 °F 17.4 °F 1014.4 in Calm     83 % 0.0 in 0.0 W/m2 CLR
03:12 20.3 °F 17.2 °F 1014.4 in Calm     82 % 0.0 in 0.0 W/m2 CLR
03:17 20.2 °F 17.2 °F 1014.1 in Calm     83 % 0.0 in 0.0 W/m2 CLR
03:22 20.1 °F 17.1 °F 1014.4 in Calm     83 % 0.0 in 0.0 W/m2 CLR
03:27 20.0 °F 17.2 °F 1014.4 in Calm     84 % 0.0 in 0.0 W/m2 CLR
03:32 19.9 °F 17.2 °F 1014.4 in Calm     84 % 0.0 in 0.0 W/m2 CLR
03:37 19.9 °F 17.1 °F 1014.4 in Calm     84 % 0.0 in 0.0 W/m2 CLR
03:42 19.8 °F 17.0 °F 1014.4 in Calm     84 % 0.0 in 0.0 W/m2 CLR
03:47 19.7 °F 16.9 °F 1014.4 in Calm     84 % 0.0 in 0.0 W/m2 CLR
03:52 19.6 °F 16.6 °F 1014.1 in Calm     83 % 0.0 in 0.0 W/m2 CLR
03:57 19.4 °F 16.6 °F 1014.4 in Calm     84 % 0.0 in 0.0 W/m2 CLR
04:02 19.3 °F 16.6 °F 1014.4 in Calm     84 % 0.0 in 0.0 W/m2 CLR
04:07 19.3 °F 16.5 °F 1014.1 in Calm     84 % 0.0 in 0.0 W/m2 CLR
04:12 19.2 °F 16.6 °F 1014.4 in Calm     85 % 0.0 in 0.0 W/m2 CLR
04:17 19.1 °F 16.7 °F 1014.4 in Calm     86 % 0.0 in 0.0 W/m2 CLR
04:18 19.1 °F 16.7 °F 1014.4 in Calm     86 % 0.0 in 0.0 W/m2 CLR
04:23 18.9 °F 16.4 °F 1014.4 in Calm     85 % 0.0 in 0.0 W/m2 CLR
04:28 18.8 °F 15.8 °F 1014.4 in Calm     83 % 0.0 in 0.0 W/m2 CLR
04:33 18.8 °F 16.2 °F 1014.4 in Calm     85 % 0.0 in 0.0 W/m2 CLR
04:38 18.8 °F 16.4 °F 1014.4 in Calm     86 % 0.0 in 0.0 W/m2 CLR
04:43 18.7 °F 16.5 °F 1014.4 in Calm     87 % 0.0 in 0.0 W/m2 CLR
04:48 18.6 °F 16.2 °F 1014.4 in Calm     86 % 0.0 in 0.0 W/m2 CLR
04:53 18.6 °F 16.0 °F 1014.4 in Calm     85 % 0.0 in 0.0 W/m2 CLR
04:58 18.6 °F 16.0 °F 1014.4 in Calm     85 % 0.0 in 0.0 W/m2 CLR
05:03 18.5 °F 15.7 °F 1014.4 in Calm     84 % 0.0 in 0.0 W/m2 CLR
05:08 18.4 °F 15.6 °F 1014.4 in Calm     84 % 0.0 in 0.0 W/m2 CLR
05:13 18.4 °F 15.6 °F 1014.4 in Calm     84 % 0.0 in 0.0 W/m2 CLR
05:18 18.3 °F 15.6 °F 1014.4 in Calm     84 % 0.0 in 0.0 W/m2 CLR
05:23 18.2 °F 15.5 °F 1014.8 in Calm     84 % 0.0 in 0.0 W/m2 CLR
05:28 18.2 °F 15.6 °F 1014.8 in Calm     85 % 0.0 in 0.0 W/m2 CLR
05:33 18.1 °F 15.4 °F 1014.8 in Calm     84 % 0.0 in 0.0 W/m2 CLR
05:38 17.9 °F 15.2 °F 1014.8 in Calm     84 % 0.0 in 0.0 W/m2 CLR
05:43 17.7 °F 14.8 °F 1015.1 in Calm     83 % 0.0 in 0.0 W/m2 CLR
05:48 17.7 °F 14.9 °F 1015.1 in Calm     84 % 0.0 in 0.0 W/m2 CLR
05:53 17.6 °F 14.9 °F 1015.1 in Calm     84 % 0.0 in 0.0 W/m2 CLR
05:59 17.5 °F 14.8 °F 1015.1 in Calm     84 % 0.0 in 0.0 W/m2 CLR
06:04 17.4 °F 14.9 °F 1015.1 in Calm     85 % 0.0 in 0.0 W/m2 CLR
06:09 17.3 °F 14.6 °F 1015.1 in Calm     84 % 0.0 in 0.0 W/m2 CLR
06:14 17.3 °F 14.6 °F 1015.5 in Calm     84 % 0.0 in 0.0 W/m2 CLR
06:19 17.3 °F 14.6 °F 1015.5 in Calm     84 % 0.0 in 0.0 W/m2 CLR
06:24 17.2 °F 14.5 °F 1015.5 in Calm     84 % 0.0 in 0.0 W/m2 CLR
06:29 17.1 °F 14.4 °F 1015.5 in Calm     84 % 0.0 in 0.0 W/m2 OVC
06:34 17.0 °F 14.3 °F 1015.5 in Calm     84 % 0.0 in 0.0 W/m2 OVC
06:39 16.8 °F 14.1 °F 1015.5 in Calm     84 % 0.0 in 5.0 W/m2 OVC
06:44 16.8 °F 14.1 °F 1015.8 in Calm     84 % 0.0 in 7.0 W/m2 OVC
06:49 16.7 °F 14.0 °F 1015.8 in Calm     84 % 0.0 in 9.0 W/m2 BKN
06:54 16.7 °F 13.9 °F 1015.8 in Calm     84 % 0.0 in 12.0 W/m2 BKN
06:59 16.7 °F 14.0 °F 1015.8 in Calm     84 % 0.0 in 14.0 W/m2 BKN
07:04 16.7 °F 14.0 °F 1015.8 in Calm     84 % 0.0 in 16.0 W/m2 BKN
07:09 16.8 °F 14.1 °F 1015.8 in Calm     84 % 0.0 in 21.0 W/m2 BKN
07:14 16.9 °F 14.0 °F 1015.8 in Calm     83 % 0.0 in 26.0 W/m2 BKN
07:19 17.1 °F 13.9 °F 1016.1 in Calm     82 % 0.0 in 37.0 W/m2 BKN
07:24 17.2 °F 14.3 °F 1016.1 in Calm     83 % 0.0 in 49.0 W/m2 SCT
07:29 17.4 °F 14.3 °F 1016.1 in Calm     82 % 0.0 in 60.0 W/m2 SCT
07:34 17.6 °F 14.5 °F 1016.1 in Calm     82 % 0.0 in 70.0 W/m2 FEW
07:39 17.8 °F 14.5 °F 1016.1 in Calm     81 % 0.0 in 81.0 W/m2 FEW
07:44 18.2 °F 14.8 °F 1016.1 in Calm     81 % 0.0 in 95.0 W/m2 FEW
07:49 18.6 °F 15.1 °F 1016.1 in Calm     80 % 0.0 in 105.0 W/m2 CLR
07:54 19.1 °F 15.1 °F 1016.1 in Calm     78 % 0.0 in 123.0 W/m2 CLR
07:59 19.4 °F 15.4 °F 1016.1 in Calm     78 % 0.0 in 141.0 W/m2 CLR
08:04 19.8 °F 16.1 °F 1016.5 in Calm     79 % 0.0 in 155.0 W/m2 CLR
08:09 20.3 °F 16.7 °F 1016.5 in Calm     80 % 0.0 in 171.0 W/m2 CLR
08:14 20.8 °F 17.1 °F 1016.5 in Calm     79 % 0.0 in 190.0 W/m2 CLR
08:19 21.1 °F 16.7 °F 1016.5 in Calm     76 % 0.0 in 206.0 W/m2 CLR
08:24 21.4 °F 16.6 °F 1016.5 in Calm     74 % 0.0 in 220.0 W/m2 CLR
08:29 21.6 °F 16.9 °F 1016.5 in Calm     75 % 0.0 in 239.0 W/m2 CLR
08:34 21.9 °F 17.1 °F 1016.5 in Calm     74 % 0.0 in 253.0 W/m2 CLR
08:39 22.2 °F 17.6 °F 1016.5 in Calm     75 % 0.0 in 267.0 W/m2 CLR
08:44 22.7 °F 18.7 °F 1016.5 in WSW 8.0 mph 8.0 mph 78 % 0.0 in 281.0 W/m2 CLR
08:49 23.1 °F 18.4 °F 1016.5 in Calm     75 % 0.0 in 297.0 W/m2 CLR
08:54 23.4 °F 18.8 °F 1016.5 in Calm     75 % 0.0 in 316.0 W/m2 CLR
08:59 23.9 °F 19.8 °F 1016.5 in WNW 11.1 mph 11.1 mph 78 % 0.0 in 332.0 W/m2 CLR
09:04 24.0 °F 19.7 °F 1016.5 in West 11.3 mph 11.3 mph 77 % 0.0 in 346.0 W/m2 CLR
09:09 23.9 °F 19.7 °F 1016.8 in West 11.1 mph 11.1 mph 77 % 0.0 in 364.0 W/m2 CLR
09:14 24.1 °F 19.6 °F 1016.8 in West 8.0 mph 8.0 mph 76 % 0.0 in 381.0 W/m2 CLR
09:15 24.1 °F 19.6 °F 1016.8 in West 6.4 mph 7.6 mph 76 % 0.0 in 381.0 W/m2 CLR
09:20 24.2 °F 19.7 °F 1016.8 in West 13.0 mph 13.0 mph 76 % 0.0 in 394.0 W/m2 CLR
09:25 24.3 °F 19.6 °F 1016.5 in WNW 7.4 mph 7.4 mph 75 % 0.0 in 411.0 W/m2 CLR
09:30 24.6 °F 19.6 °F 1016.8 in WNW 7.4 mph 7.4 mph 74 % 0.0 in 431.0 W/m2 CLR
09:35 24.9 °F 19.9 °F 1016.8 in WSW 5.6 mph 5.6 mph 74 % 0.0 in 446.0 W/m2 CLR
09:36 24.9 °F 19.8 °F 1016.5 in Calm     73 % 0.0 in 446.0 W/m2 CLR
09:41 25.3 °F 19.9 °F 1016.5 in WSW 3.7 mph   72 % 0.0 in 464.0 W/m2 CLR
09:46 25.6 °F 20.1 °F 1016.5 in NW 3.7 mph   72 % 0.0 in 480.0 W/m2 CLR
09:51 25.7 °F 19.8 °F 1016.8 in North 4.8 mph 4.8 mph 70 % 0.0 in 496.0 W/m2 CLR
09:56 25.9 °F 19.8 °F 1016.8 in NW 8.0 mph 8.0 mph 69 % 0.0 in 508.0 W/m2 CLR
10:01 26.2 °F 19.6 °F 1016.8 in NW 14.5 mph 14.5 mph 67 % 0.0 in 526.0 W/m2 CLR
10:06 26.4 °F 19.8 °F 1016.5 in Calm     67 % 0.0 in 540.0 W/m2 CLR
10:11 26.6 °F 19.4 °F 1016.5 in Calm     65 % 0.0 in 557.0 W/m2 CLR
10:16 26.7 °F 19.6 °F 1016.5 in NNW 6.4 mph 6.4 mph 65 % 0.0 in 570.0 W/m2 CLR
10:21 26.8 °F 19.4 °F 1016.5 in North 5.6 mph 5.6 mph 64 % 0.0 in 584.0 W/m2 CLR
10:26 27.0 °F 19.3 °F 1016.5 in North 5.6 mph 5.6 mph 63 % 0.0 in 598.0 W/m2 CLR
10:31 27.3 °F 19.4 °F 1016.5 in NW 7.4 mph 7.4 mph 62 % 0.0 in 610.0 W/m2 CLR
10:36 27.6 °F 19.3 °F 1016.5 in NNW 5.6 mph 5.6 mph 61 % 0.0 in 621.0 W/m2 CLR
10:41 27.8 °F 19.1 °F 1016.5 in NNW 1.9 mph 1.9 mph 59 % 0.0 in 636.0 W/m2 CLR
10:46 28.1 °F 18.5 °F 1016.5 in Calm     56 % 0.0 in 654.0 W/m2 CLR
10:51 28.4 °F 18.5 °F 1016.5 in NNW 5.6 mph 5.6 mph 55 % 0.0 in 664.0 W/m2 CLR
10:56 28.6 °F 18.1 °F 1016.5 in Calm     53 % 0.0 in 675.0 W/m2 CLR
11:00 28.9 °F 18.4 °F 1016.5 in NW 9.7 mph 9.7 mph 53 % 0.0 in 686.0 W/m2 CLR
11:05 28.9 °F 18.1 °F 1016.5 in WNW 13.0 mph 13.0 mph 52 % 0.0 in 700.0 W/m2 CLR
11:10 28.8 °F 18.3 °F 1016.5 in NNW 11.1 mph 11.1 mph 53 % 0.0 in 710.0 W/m2 CLR
11:15 28.9 °F 17.4 °F 1016.5 in Calm     50 % 0.0 in 721.0 W/m2 CLR
11:20 29.1 °F 17.6 °F 1016.5 in WNW 11.3 mph 11.3 mph 50 % 0.0 in 735.0 W/m2 CLR
11:25 29.4 °F 17.9 °F 1016.5 in NNW 9.3 mph 9.3 mph 50 % 0.0 in 744.0 W/m2 CLR
11:30 29.5 °F 17.3 °F 1016.5 in NW 1.6 mph 1.6 mph 48 % 0.0 in 756.0 W/m2 CLR
11:35 29.5 °F 17.7 °F 1016.5 in WNW 3.7 mph 3.7 mph 49 % 0.0 in 770.0 W/m2 CLR
11:40 29.6 °F 18.1 °F 1016.5 in NNE 16.7 mph 16.7 mph 50 % 0.0 in 779.0 W/m2 CLR
11:45 29.8 °F 18.6 °F 1016.5 in North 13.0 mph 13.0 mph 51 % 0.0 in 788.0 W/m2 CLR
11:50 29.8 °F 18.6 °F 1016.5 in North 14.8 mph 14.8 mph 51 % 0.0 in 796.0 W/m2 CLR
11:55 29.8 °F 18.9 °F 1016.5 in North 9.7 mph 9.7 mph 52 % 0.0 in 807.0 W/m2 CLR
12:00 30.1 °F 18.6 °F 1016.5 in NW 9.3 mph 9.3 mph 50 % 0.0 in 816.0 W/m2 CLR
12:05 30.4 °F 18.5 °F 1016.5 in NNE 11.1 mph 11.1 mph 49 % 0.0 in 824.0 W/m2 CLR
12:06 30.4 °F 18.5 °F 1016.5 in East 3.7 mph   49 % 0.0 in 826.0 W/m2 CLR
12:11 30.6 °F 19.0 °F 1016.1 in North 3.7 mph 3.7 mph 50 % 0.0 in 835.0 W/m2 CLR
12:16 30.8 °F 18.2 °F 1016.1 in North 13.0 mph 13.0 mph 47 % 0.0 in 847.0 W/m2 CLR
12:21 30.8 °F 18.2 °F 1016.1 in ENE 7.4 mph 7.4 mph 47 % 0.0 in 854.0 W/m2 CLR
12:26 31.1 °F 18.4 °F 1016.1 in NNE 7.4 mph 7.4 mph 47 % 0.0 in 860.0 W/m2 CLR
12:31 31.4 °F 18.1 °F 1016.1 in NNE 13.0 mph 13.0 mph 45 % 0.0 in 868.0 W/m2 CLR
12:36 31.6 °F 17.4 °F 1016.1 in NNE 11.3 mph 11.3 mph 43 % 0.0 in 875.0 W/m2 CLR
12:41 31.4 °F 17.3 °F 1016.1 in NNW 9.3 mph 9.3 mph 43 % 0.0 in 881.0 W/m2 CLR
12:46 31.6 °F 17.5 °F 1016.1 in NE 11.1 mph 11.1 mph 43 % 0.0 in 886.0 W/m2 CLR
12:51 31.7 °F 17.2 °F 1016.1 in ENE 11.1 mph 11.1 mph 42 % 0.0 in 895.0 W/m2 CLR
12:56 31.8 °F 17.3 °F 1016.1 in NE 9.3 mph 9.3 mph 42 % 0.0 in 898.0 W/m2 CLR
13:01 32.2 °F 17.6 °F 1016.1 in NNW 5.6 mph 5.6 mph 42 % 0.0 in 904.0 W/m2 CLR
13:06 32.6 °F 17.2 °F 1016.1 in NE 11.3 mph 11.3 mph 40 % 0.0 in 907.0 W/m2 CLR
13:11 32.6 °F 17.3 °F 1016.1 in North 3.7 mph   40 % 0.0 in 916.0 W/m2 CLR
13:16 32.5 °F 16.8 °F 1016.1 in NNE 13.0 mph 13.0 mph 39 % 0.0 in 919.0 W/m2 CLR
13:21 32.3 °F 16.9 °F 1015.8 in Calm     40 % 0.0 in 925.0 W/m2 CLR
13:26 32.4 °F 16.7 °F 1015.8 in NE 14.8 mph 14.8 mph 39 % 0.0 in 926.0 W/m2 CLR
13:31 32.8 °F 16.7 °F 1015.8 in NNE 11.1 mph 11.1 mph 38 % 0.0 in 928.0 W/m2 CLR
13:36 33.1 °F 16.4 °F 1015.8 in NNE 16.7 mph 16.7 mph 37 % 0.0 in 933.0 W/m2 CLR
13:41 33.0 °F 16.4 °F 1015.8 in NE 9.3 mph 9.3 mph 37 % 0.0 in 937.0 W/m2 CLR
13:46 33.1 °F 16.4 °F 1015.8 in North 18.5 mph 18.5 mph 37 % 0.0 in 935.0 W/m2 CLR
13:51 33.1 °F 16.4 °F 1015.8 in North 8.0 mph 8.0 mph 37 % 0.0 in 939.0 W/m2 CLR
13:56 33.3 °F 15.8 °F 1015.8 in NNW 14.8 mph 14.8 mph 35 % 0.0 in 940.0 W/m2 CLR
14:01 33.6 °F 15.6 °F 1015.5 in North 13.0 mph 13.0 mph 34 % 0.0 in 939.0 W/m2 CLR
14:06 33.8 °F 16.2 °F 1015.5 in NNE 11.1 mph 11.1 mph 35 % 0.0 in 935.0 W/m2 CLR
14:11 33.8 °F 16.6 °F 1015.5 in Calm     36 % 0.0 in 933.0 W/m2 CLR
14:16 34.1 °F 16.4 °F 1015.5 in NE 7.4 mph 7.4 mph 35 % 0.0 in 930.0 W/m2 CLR
14:21 34.3 °F 16.2 °F 1015.5 in ENE 7.4 mph 7.4 mph 34 % 0.0 in 928.0 W/m2 CLR
14:26 34.4 °F 16.3 °F 1015.5 in NW 13.0 mph 13.0 mph 34 % 0.0 in 930.0 W/m2 CLR
14:31 34.4 °F 17.2 °F 1015.5 in ENE 11.1 mph 11.1 mph 36 % 0.0 in 925.0 W/m2 CLR
14:36 34.3 °F 17.1 °F 1015.5 in NNE 11.1 mph 11.1 mph 36 % 0.0 in 921.0 W/m2 CLR
14:41 34.3 °F 17.6 °F 1015.5 in NE 18.5 mph 18.5 mph 37 % 0.0 in 918.0 W/m2 CLR
14:46 34.5 °F 17.7 °F 1015.5 in NNE 16.1 mph 16.1 mph 37 % 0.0 in 919.0 W/m2 CLR
14:51 34.6 °F 16.9 °F 1015.5 in NE 5.6 mph   35 % 0.0 in 911.0 W/m2 CLR
14:56 34.9 °F 17.6 °F 1015.5 in North 11.3 mph 11.3 mph 36 % 0.0 in 914.0 W/m2 CLR
15:01 34.9 °F 16.7 °F 1015.1 in NE 14.5 mph 14.5 mph 34 % 0.0 in 905.0 W/m2 CLR
15:06 35.1 °F 16.4 °F 1015.5 in NNW 14.8 mph 14.8 mph 33 % 0.0 in 898.0 W/m2 CLR
15:11 35.1 °F 16.9 °F 1015.1 in North 11.1 mph 11.1 mph 34 % 0.0 in 893.0 W/m2 CLR
15:16 35.3 °F 17.1 °F 1015.1 in NE 8.0 mph 8.0 mph 34 % 0.0 in 893.0 W/m2 CLR
15:21 35.6 °F 17.3 °F 1015.1 in NNE 16.7 mph 16.7 mph 34 % 0.0 in 884.0 W/m2 CLR
15:26 35.8 °F 16.5 °F 1015.1 in NNE 5.6 mph   32 % 0.0 in 882.0 W/m2 CLR
15:31 35.6 °F 17.3 °F 1015.1 in Calm     34 % 0.0 in 877.0 W/m2 CLR
15:36 35.5 °F 15.8 °F 1015.1 in Calm     31 % 0.0 in 867.0 W/m2 CLR
15:41 35.8 °F 17.9 °F 1015.1 in NNE 13.0 mph 13.0 mph 35 % 0.0 in 854.0 W/m2 CLR
15:46 35.8 °F 17.5 °F 1015.1 in South 3.7 mph   34 % 0.0 in 846.0 W/m2 CLR
15:51 35.8 °F 15.0 °F 1015.1 in North 11.1 mph 11.1 mph 29 % 0.0 in 849.0 W/m2 CLR
15:56 36.0 °F 17.7 °F 1015.1 in NE 7.4 mph 7.4 mph 34 % 0.0 in 833.0 W/m2 CLR
16:01 36.4 °F 17.6 °F 1015.1 in ENE 5.6 mph 5.6 mph 33 % 0.0 in 828.0 W/m2 CLR
16:06 36.4 °F 16.6 °F 1015.1 in ENE 13.0 mph 13.0 mph 31 % 0.0 in 819.0 W/m2 CLR
16:11 36.3 °F 16.4 °F 1014.8 in NE 5.6 mph   31 % 0.0 in 810.0 W/m2 CLR
16:16 36.4 °F 16.1 °F 1014.8 in ENE 7.4 mph   30 % 0.0 in 798.0 W/m2 CLR
16:21 36.6 °F 16.2 °F 1014.8 in ENE 16.1 mph 16.1 mph 30 % 0.0 in 789.0 W/m2 CLR
16:26 36.8 °F 15.8 °F 1014.8 in NNE 18.5 mph 18.5 mph 29 % 0.0 in 782.0 W/m2 CLR
16:31 36.8 °F 15.3 °F 1014.8 in NNE 11.1 mph 11.1 mph 28 % 0.0 in 768.0 W/m2 CLR
16:36 36.7 °F 15.8 °F 1014.8 in North 9.3 mph 9.3 mph 29 % 0.0 in 756.0 W/m2 CLR
16:41 36.7 °F 16.3 °F 1014.8 in North 9.3 mph 9.3 mph 30 % 0.0 in 751.0 W/m2 CLR
16:46 36.7 °F 14.1 °F 1014.8 in NW 3.7 mph   26 % 0.0 in 745.0 W/m2 CLR
16:51 37.0 °F 14.3 °F 1014.8 in Calm     26 % 0.0 in 733.0 W/m2 CLR
16:56 37.1 °F 16.1 °F 1014.8 in ENE 11.3 mph 11.3 mph 29 % 0.0 in 717.0 W/m2 CLR
17:02 36.7 °F 15.8 °F 1014.4 in NE 7.4 mph 7.4 mph 29 % 0.0 in 703.0 W/m2 CLR
17:07 36.7 °F 15.8 °F 1014.8 in East 9.7 mph 9.7 mph 29 % 0.0 in 694.0 W/m2 CLR
17:12 36.6 °F 15.7 °F 1014.4 in WNW 5.6 mph   29 % 0.0 in 682.0 W/m2 CLR
17:17 36.7 °F 15.7 °F 1014.4 in ENE 9.7 mph 9.7 mph 29 % 0.0 in 668.0 W/m2 CLR
17:22 36.6 °F 15.2 °F 1014.4 in ENE 3.7 mph 3.7 mph 28 % 0.0 in 652.0 W/m2 CLR
17:27 36.7 °F 15.2 °F 1014.4 in East 6.4 mph 6.4 mph 28 % 0.0 in 643.0 W/m2 CLR
17:32 36.7 °F 15.7 °F 1014.4 in NNE 9.3 mph 9.3 mph 29 % 0.0 in 631.0 W/m2 CLR
17:37 37.1 °F 15.5 °F 1014.4 in NE 7.4 mph 7.4 mph 28 % 0.0 in 615.0 W/m2 CLR
17:42 37.2 °F 13.8 °F 1014.4 in NNW 11.1 mph 11.1 mph 25 % 0.0 in 608.0 W/m2 CLR
17:47 37.3 °F 15.8 °F 1014.1 in NNE 9.3 mph 9.3 mph 28 % 0.0 in 592.0 W/m2 CLR
17:52 37.2 °F 14.4 °F 1014.4 in East 11.1 mph 11.1 mph 26 % 0.0 in 575.0 W/m2 CLR
17:57 36.9 °F 14.3 °F 1014.1 in SE 5.6 mph 5.6 mph 26 % 0.0 in 563.0 W/m2 CLR
18:02 36.8 °F 14.8 °F 1014.1 in NE 5.6 mph 5.6 mph 27 % 0.0 in 548.0 W/m2 CLR
18:07 37.0 °F 13.1 °F 1014.1 in NNW 13.0 mph 13.0 mph 24 % 0.0 in 534.0 W/m2 CLR
18:12 37.3 °F 12.7 °F 1014.1 in North 11.1 mph 11.1 mph 23 % 0.0 in 526.0 W/m2 CLR
18:17 37.4 °F 12.8 °F 1014.1 in NE 9.3 mph 9.3 mph 23 % 0.0 in 508.0 W/m2 CLR
18:22 37.5 °F 12.8 °F 1014.1 in Calm     23 % 0.0 in 494.0 W/m2 CLR
18:27 37.6 °F 12.3 °F 1014.1 in North 8.0 mph 8.0 mph 22 % 0.0 in 478.0 W/m2 CLR
18:32 37.7 °F 12.4 °F 1014.1 in North 7.4 mph 7.4 mph 22 % 0.0 in 466.0 W/m2 CLR
18:37 37.7 °F 12.3 °F 1014.1 in NNE 14.8 mph 14.8 mph 22 % 0.0 in 448.0 W/m2 CLR
18:42 37.6 °F 12.2 °F 1014.1 in North 5.6 mph 5.6 mph 22 % 0.0 in 432.0 W/m2 CLR
18:47 37.7 °F 12.3 °F 1014.1 in North 7.4 mph 7.4 mph 22 % 0.0 in 417.0 W/m2 CLR
18:52 37.8 °F 12.4 °F 1014.1 in NNW 1.9 mph 1.9 mph 22 % 0.0 in 403.0 W/m2 CLR
18:57 38.0 °F 12.6 °F 1013.8 in ENE 9.3 mph 9.3 mph 22 % 0.0 in 383.0 W/m2 CLR
19:02 37.9 °F 12.6 °F 1013.8 in NNE 13.0 mph 13.0 mph 22 % 0.0 in 367.0 W/m2 CLR
19:07 37.6 °F 12.3 °F 1013.8 in NNE 14.8 mph 14.8 mph 22 % 0.0 in 352.0 W/m2 CLR
19:12 37.6 °F 12.2 °F 1013.8 in North 5.6 mph 5.6 mph 22 % 0.0 in 338.0 W/m2 CLR
19:18 37.6 °F 12.2 °F 1014.1 in North 3.7 mph 3.7 mph 22 % 0.0 in 320.0 W/m2 CLR
19:23 37.6 °F 12.3 °F 1014.1 in NE 7.4 mph 7.4 mph 22 % 0.0 in 306.0 W/m2 CLR
19:28 37.6 °F 12.2 °F 1014.1 in NE 5.6 mph 5.6 mph 22 % 0.0 in 287.0 W/m2 CLR
19:33 37.4 °F 12.1 °F 1014.1 in NE 5.6 mph 5.6 mph 22 % 0.0 in 272.0 W/m2 CLR
19:38 37.3 °F 11.3 °F 1014.1 in ENE 7.4 mph 7.4 mph 21 % 0.0 in 257.0 W/m2 CLR
19:43 37.0 °F 11.8 °F 1014.1 in Calm     22 % 0.0 in 241.0 W/m2 CLR
19:44 37.0 °F 11.8 °F 1014.1 in Calm     22 % 0.0 in 236.0 W/m2 CLR
19:49 37.1 °F 11.8 °F 1014.1 in ENE 3.2 mph 3.2 mph 22 % 0.0 in 220.0 W/m2 CLR
19:54 37.1 °F 12.5 °F 1014.1 in NE 8.0 mph 8.0 mph 23 % 0.0 in 204.0 W/m2 CLR
19:59 37.1 °F 11.8 °F 1014.1 in NNE 11.1 mph 11.1 mph 22 % 0.0 in 186.0 W/m2 CLR
20:04 37.1 °F 11.8 °F 1014.1 in North 5.6 mph 5.6 mph 22 % 0.0 in 169.0 W/m2 CLR
20:09 37.3 °F 12.0 °F 1014.1 in Calm     22 % 0.0 in 153.0 W/m2 CLR
20:14 37.3 °F 12.0 °F 1014.1 in Calm   0.2 mph 22 % 0.0 in 137.0 W/m2 CLR
20:19 37.2 °F 12.6 °F 1014.1 in NW 5.6 mph 5.6 mph 23 % 0.0 in 120.0 W/m2 CLR
20:24 37.1 °F 12.5 °F 1014.1 in NNW 3.7 mph   23 % 0.0 in 105.0 W/m2 CLR
20:29 37.1 °F 13.1 °F 1014.1 in Calm     24 % 0.0 in 91.0 W/m2 CLR
20:34 37.1 °F 12.5 °F 1014.1 in Calm     23 % 0.0 in 79.0 W/m2 FEW
20:39 36.9 °F 13.1 °F 1014.1 in Calm     24 % 0.0 in 65.0 W/m2 FEW
20:44 36.7 °F 12.8 °F 1014.1 in Calm     24 % 0.0 in 53.0 W/m2 SCT
20:49 36.4 °F 13.3 °F 1014.4 in NW 5.6 mph   25 % 0.0 in 39.0 W/m2 BKN
20:54 36.1 °F 12.9 °F 1014.4 in NNW 1.9 mph   25 % 0.0 in 32.0 W/m2 BKN
20:59 35.7 °F 13.2 °F 1014.4 in Calm     26 % 0.0 in 21.0 W/m2 BKN
21:04 35.5 °F 13.6 °F 1014.4 in NW 3.2 mph 3.2 mph 27 % 0.0 in 21.0 W/m2 BKN
21:09 35.1 °F 13.3 °F 1014.4 in NW 3.7 mph 3.7 mph 27 % 0.0 in 16.0 W/m2 BKN
21:14 34.8 °F 13.6 °F 1014.4 in NNW 3.7 mph 3.7 mph 28 % 0.0 in 12.0 W/m2 BKN
21:19 34.5 °F 13.3 °F 1014.4 in NW 5.6 mph 5.6 mph 28 % 0.0 in 11.0 W/m2 BKN
21:25 34.2 °F 14.2 °F 1014.4 in NW 1.9 mph   30 % 0.0 in 7.0 W/m2 BKN
21:30 33.6 °F 14.2 °F 1014.4 in NW 7.4 mph 7.4 mph 31 % 0.0 in 5.0 W/m2 OVC
21:35 33.1 °F 13.7 °F 1014.4 in NW 9.3 mph 9.3 mph 31 % 0.0 in 0.0 W/m2 OVC
21:40 32.9 °F 14.0 °F 1014.8 in NW 5.6 mph 6.3 mph 32 % 0.0 in 0.0 W/m2 OVC
21:45 33.1 °F 14.2 °F 1014.8 in NW 7.4 mph 7.4 mph 32 % 0.0 in 0.0 W/m2 CLR
21:50 32.9 °F 14.0 °F 1014.8 in NNW 9.3 mph 9.3 mph 32 % 0.0 in 0.0 W/m2 CLR
21:55 32.7 °F 13.9 °F 1014.8 in NW 7.4 mph 7.4 mph 32 % 0.0 in 0.0 W/m2 CLR
22:00 32.7 °F 13.9 °F 1015.1 in NW 11.1 mph 11.1 mph 32 % 0.0 in 0.0 W/m2 CLR
22:05 32.9 °F 14.6 °F 1015.1 in NW 18.5 mph 18.5 mph 33 % 0.0 in 0.0 W/m2 CLR
22:10 33.1 °F 14.7 °F 1015.1 in NW 18.5 mph 18.5 mph 33 % 0.0 in 0.0 W/m2 CLR
22:15 32.9 °F 15.0 °F 1015.1 in NNW 16.7 mph 16.7 mph 34 % 0.0 in 0.0 W/m2 CLR
22:20 32.8 °F 15.3 °F 1015.1 in NW 16.7 mph 16.7 mph 35 % 0.0 in 0.0 W/m2 CLR
22:25 32.6 °F 15.2 °F 1015.5 in NW 16.7 mph 16.7 mph 35 % 0.0 in 0.0 W/m2 CLR
22:30 32.5 °F 15.5 °F 1015.5 in NNW 19.3 mph 19.3 mph 36 % 0.0 in 0.0 W/m2 CLR
22:35 32.2 °F 15.7 °F 1015.5 in NW 16.7 mph 16.7 mph 37 % 0.0 in 0.0 W/m2 CLR
22:40 32.0 °F 15.9 °F 1015.5 in NW 14.8 mph 14.8 mph 38 % 0.0 in 0.0 W/m2 CLR
22:45 31.7 °F 16.1 °F 1015.8 in NW 11.3 mph 11.3 mph 39 % 0.0 in 0.0 W/m2 CLR
22:50 31.6 °F 15.9 °F 1015.8 in NW 11.1 mph 11.1 mph 39 % 0.0 in 0.0 W/m2 CLR
22:55 31.4 °F 15.8 °F 1015.8 in NNW 11.1 mph 11.1 mph 39 % 0.0 in 0.0 W/m2 CLR
23:00 31.3 °F 15.7 °F 1015.8 in NW 13.0 mph 13.0 mph 39 % 0.0 in 0.0 W/m2 CLR
23:05 31.3 °F 15.7 °F 1015.8 in NNW 20.4 mph 20.4 mph 39 % 0.0 in 0.0 W/m2 CLR
23:10 31.4 °F 15.4 °F 1016.1 in NW 18.5 mph 18.5 mph 38 % 0.0 in 0.0 W/m2 CLR
23:15 31.3 °F 15.7 °F 1016.1 in NW 13.0 mph 13.0 mph 39 % 0.0 in 0.0 W/m2 CLR
23:20 31.1 °F 15.5 °F 1016.1 in NW 14.8 mph 14.8 mph 39 % 0.0 in 0.0 W/m2 CLR
23:25 30.9 °F 15.7 °F 1016.1 in NW 18.5 mph 18.5 mph 40 % 0.0 in 0.0 W/m2 CLR
23:30 30.6 °F 15.8 °F 1016.1 in NW 14.8 mph 14.8 mph 41 % 0.0 in 0.0 W/m2 CLR
23:31 30.6 °F 15.8 °F 1016.1 in WNW 14.8 mph 14.8 mph 41 % 0.0 in 0.0 W/m2 CLR
23:36 30.4 °F 15.7 °F 1016.1 in WNW 11.1 mph 11.1 mph 41 % 0.0 in 0.0 W/m2 CLR
23:41 30.2 °F 15.1 °F 1016.1 in WNW 13.0 mph 13.0 mph 40 % 0.0 in 0.0 W/m2 CLR
23:46 30.1 °F 15.4 °F 1016.5 in NW 16.1 mph 16.1 mph 41 % 0.0 in 0.0 W/m2 CLR
23:51 30.0 °F 14.9 °F 1016.5 in WNW 9.3 mph 9.3 mph 40 % 0.0 in 0.0 W/m2 CLR
23:56 29.9 °F 14.9 °F 1016.5 in WNW 5.6 mph 5.6 mph 40 % 0.0 in 0.0 W/m2 CLR
Lo Temps de Massalio
Compliments of Weather Underground - 1.25 mb